Zurück zum Katalog

STARLINK-36341

AktivKommunikationVLEO
NORAD 67918·PAYLOAD·🇺🇸 United States

Gestartet Feb 22, 2026 von Vandenberg Space Force Base

Loading…

Nächste Überflüge (nächste 24 Stunden)

TLE

AktuellSource: CelesTrak SupGP

Epoche: Sep 15, 2026, 04:08 UTC

1 67918C 26036Q   26258.17270833 -.00026842  00000+0 -97242-3 0  2580
2 67918  42.9990 255.6024 0001293 268.5160 182.5236 15.27584855    11

Verfolge STARLINK-36341 in Echtzeit mit AllMySat

Download on the App Store